Printer-friendly version

IAU Minor Planet Center

Minor Planet Center

MPEC 2006-T32 : 2006 TB7

The following Minor Planet Electronic Circular may be linked-to from your own Web pages, but must not otherwise be redistributed electronically.


Read MPEC 2006-T31 Read MPEC 2006-T33


M.P.E.C. 2006-T32                                Issued 2006 Oct. 5, 12:13 UT

     The Minor Planet Electronic Circulars contain information on unusual
         minor planets and routine data on comets.  They are published
   on behalf of Commission 20 of the International Astronomical Union by the
          Minor Planet Center, Smithsonian Astrophysical Observatory,
                          Cambridge, MA 02138, U.S.A.

             Prepared using the Tamkin Foundation Computer Network

                              MPC@CFA.HARVARD.EDU
          URL http://cfa-www.harvard.edu/iau/mpc.html  ISSN 1523-6714

                                   2006 TB7

Observations:
     K06T07B* C2006 10 04.56371 00 04 47.74 -51 34 08.2          18.7 V ET032E12
     K06T07B  C2006 10 04.56418 00 04 48.36 -51 34 12.8          19.1 V ET032E12
     K06T07B  C2006 10 04.56466 00 04 48.90 -51 34 17.0          18.6 V ET032E12
     K06T07B  C2006 10 04.56512 00 04 49.58 -51 34 21.7          18.9 V ET032E12
     K06T07B  C2006 10 04.56560 00 04 50.16 -51 34 26.5          17.9 V ET032E12
     K06T07B  C2006 10 04.56638 00 04 51.17 -51 34 32.8          18.3 V ET032E12
     K06T07B  C2006 10 04.56686 00 04 51.79 -51 34 37.2          18.5 V ET032E12
     K06T07B  C2006 10 04.56733 00 04 52.30 -51 34 42.8                 ET032E12
     K06T07B  C2006 10 04.56782 00 04 53.08 -51 34 46.8                 ET032E12
     K06T07B  C2006 10 04.56829 00 04 53.64 -51 34 52.1                 ET032E12
     K06T07B  C2006 10 05.39279 00 22 55.95 -53 25 33.6          18.8 R ET032E12
     K06T07B  C2006 10 05.40005 00 23 04.28 -53 26 28.4          18.8 R ET032E12
     K06T07B  C2006 10 05.40072 00 22 50.28 -53 28 04.6          19.7 V ET032F84
     K06T07B  C2006 10 05.40746 00 23 12.93 -53 27 24.8          18.4 R ET032E12
     K06T07B  C2006 10 05.41315 00 23 04.01 -53 29 30.6          19.9 V ET032F84

Observer details:
E12 Siding Spring Survey.  Observers R. H. McNaught, D. M. Burton.  Measurers
    E. C. Beshore, E. J. Christensen, G. J. Garradd, A. R. Gibbs, A. D. Grauer,
    R. E. Hill, R. A. Kowalski, S. M. Larson, R. H. McNaught.  0.5-m Uppsala
    Schmidt + CCD.
F84 Hibiscus Observatory, Punaauia.  Observer N. Teamo.  Measurer J. C. Pelle.
    0.35-m f/3.88 Schmidt-Cassegrain + 1392x1040 CCD.

Orbital elements:
2006 TB7                                                 Earth MOID = 0.0164 AU
Epoch 2006 Sept. 22.0 TT = JDT 2454000.5                MPC
M  12.78787              (2000.0)            P               Q
n   0.70705788     Peri.  152.63298     +0.92352293     +0.38207572
a   1.2478606      Node   185.25417     -0.38315389     +0.92299224
e   0.1986182      Incl.   21.47113     +0.01727672     +0.04586365
P   1.39           H   23.4           G   0.15           U   8
Residuals in seconds of arc
061004 E12  0.4-  0.1+    061004 E12  0.1+  0.6+    061005 E12  0.4+  0.0
061004 E12  0.1-  0.1-    061004 E12  0.2+  0.7+    061005 E12  0.6-  0.3+
061004 E12  0.8-  0.3+    061004 E12  0.6-  0.5-    061005 F84  0.2-  0.4+
061004 E12  0.1+  0.1-    061004 E12  0.9+  0.1+    061005 E12  0.1+  0.2-
061004 E12  0.1-  0.4-    061004 E12  0.6+  0.8-    061005 F84  0.3+  0.5-

Ephemeris:
2006 TB7                 a,e,i = 1.25, 0.20, 21                  q = 1.0000
Date    TT    R. A. (2000) Decl.     Delta      r     Elong.  Phase     V
2006 10 02    22 55.02   -40 05.0    0.0322   1.022   131.2    47.4    17.8
2006 10 04    23 51.35   -49 53.8    0.0430   1.026   125.0    53.1    18.6
2006 10 06    00 34.43   -54 28.6    0.0554   1.029   120.5    56.8    19.2
2006 10 08    01 06.20   -56 42.8    0.0684   1.033   117.5    59.1    19.8
2006 10 10    01 29.63   -57 51.0    0.0817   1.036   115.4    60.5    20.2
2006 10 12    01 47.18   -58 25.7    0.0952   1.040   113.9    61.3    20.6
2006 10 14    02 00.56   -58 41.9    0.109    1.044   112.7    61.8    20.9
2006 10 16    02 10.94   -58 47.1    0.122    1.049   111.8    62.0    21.1
2006 10 18    02 19.13   -58 45.2    0.136    1.053   111.1    62.0    21.4
2006 10 20    02 25.68   -58 38.4    0.150    1.058   110.5    61.9    21.6
2006 10 22    02 30.98   -58 27.9    0.163    1.062   110.0    61.7    21.8
2006 10 24    02 35.31   -58 14.5    0.176    1.067   109.6    61.4    22.0
2006 10 26    02 38.89   -57 58.6    0.190    1.072   109.3    61.1    22.1
2006 10 28    02 41.88   -57 40.6    0.203    1.077   109.0    60.7    22.3
2006 10 30    02 44.39   -57 20.7    0.216    1.082   108.8    60.3    22.4
2006 11 01    02 46.53   -56 59.1    0.229    1.088   108.6    59.9    22.5

Timothy B. Spahr             (C) Copyright 2006 MPC           M.P.E.C. 2006-T32

Read MPEC 2006-T31 Read MPEC 2006-T33


Our Web policy. Index to the CBAT/MPC/ICQ pages.


Valid HTML 4.01!